Cape Race, Canada

2:53 PM NST on January 16, 2018 (GMT -0330)
Cape Race

Weather History for CWRA - September, 2011

Change the Weather History Date:

Friday, September 16, 2011

  Actual Average Record
Temperature  
Mean Temperature 58 °F -  
Max Temperature 63 °F - - ()
Min Temperature 51 °F - - ()
Degree Days  
Heating Degree Days 8    
Growing Degree Days 8 (Base 50)    
Moisture  
Dew Point 58 °F    
Average Humidity 97    
Maximum Humidity 100    
Minimum Humidity 83    
Precipitation  
Precipitation 0.28 in - - ()
Sea Level Pressure  
Sea Level Pressure 29.66 in    
Wind  
Wind Speed 22 mph ()    
Max Wind Speed 41 mph    
Max Gust Speed 54 mph    
Visibility 9.0 miles    
Events      
T = Trace of Precipitation, MM = Missing Value Source: Averaged Metar Reports

Daily Weather History Graph

Daily Weather History Graph

Search for Another Location

Airport or City:

Trip Planner

Search our weather history database for the weather conditions in past years. The results will help you decide how hot, cold, wet, or windy it might be!

Date:

Astronomy

Sep. 16, 2011 Rise Set
Actual Time 6:40 AM NDT 7:12 PM NDT
Civil Twilight 6:10 AM NDT 7:42 PM NDT
Nautical Twilight 5:34 AM NDT 8:18 PM NDT
Astronomical Twilight 4:56 AM NDT 8:56 PM NDT
Moon 8:38 PM NDT 11:00 AM NDT
Length of Visible Light 13h 32m
Length of Day
12h 31m
Waning Gibbous, 85% of the Moon is Illuminated
Sep 16
Waning Gibbous
Sep 20
Last Quarter
Sep 27
New
Oct 4
First Quarter
Oct 11
Full

Hourly Weather History & Observations

Time (NDT) Temp. Dew Point Humidity Pressure Visibility Wind Dir Wind Speed Gust Speed Precip Events Conditions
12:30 AM 57.4 °F 57.4 °F 100% 30.07 in - South 12.7 mph - N/A   Unknown
1:30 AM 57.6 °F 57.6 °F 100% 30.04 in - South 15.0 mph 21.9 mph N/A   Unknown
2:30 AM 57.9 °F 57.9 °F 100% 30.00 in - South 13.8 mph 20.7 mph N/A   Unknown
3:30 AM 58 °F 58 °F 99% 29.97 in - South 15.0 mph - -  
3:30 AM 57.7 °F 57.7 °F 100% 29.97 in - South 15.0 mph - N/A   Unknown
5:30 AM 59.0 °F 59.0 °F 100% 29.88 in - South 18.4 mph 26.5 mph N/A   Unknown
6:30 AM 59 °F 59 °F 100% 29.85 in 9 mi South 21.9 mph - -  
6:30 AM 59.4 °F 59.4 °F 100% 29.85 in - South 21.9 mph 29.9 mph 0.15 in   Unknown
7:30 AM 59.7 °F 59.7 °F 100% 29.80 in - South 19.6 mph 27.6 mph 0.07 in   Unknown
8:30 AM 60.1 °F 60.1 °F 100% 29.76 in - South 27.6 mph 40.3 mph N/A   Unknown
9:30 AM 60 °F 60 °F 100% 29.73 in - South 31.1 mph - -  
9:30 AM 60.1 °F 60.1 °F 100% 29.73 in - South 31.1 mph 36.8 mph 0.05 in   Unknown
10:30 AM 60.4 °F 60.4 °F 100% 29.69 in - South 31.1 mph 38.0 mph N/A   Unknown
11:30 AM 60.3 °F 60.3 °F 100% 29.65 in - South 27.6 mph 34.5 mph N/A   Unknown
12:30 PM 61 °F 61 °F 100% 29.56 in 9 mi South 24.2 mph - -  
12:30 PM 61.0 °F 61.0 °F 100% 29.56 in - South 24.2 mph 34.5 mph N/A   Unknown
1:30 PM 61.7 °F 61.7 °F 100% 29.42 in - SSE 25.3 mph 36.8 mph N/A   Unknown
2:30 PM 62.2 °F 62.2 °F 100% 29.26 in - SSE 31.1 mph 47.2 mph N/A   Unknown
3:30 PM 61 °F 61 °F 98% 29.09 in - South 41.4 mph - -  
3:30 PM 60.6 °F 60.6 °F 100% 29.09 in - South 41.4 mph 54.1 mph 0.11 in   Unknown
4:30 PM 61.2 °F 61.2 °F 100% 29.19 in - SW 38.0 mph 51.8 mph N/A   Unknown
5:30 PM 62.2 °F 62.2 °F 100% 29.40 in - WSW 40.3 mph 51.8 mph N/A   Unknown
6:30 PM 58 °F 57 °F 95% 29.51 in 9 mi WSW 36.8 mph - -  
6:30 PM 57.6 °F 57.0 °F 98% 29.51 in - WSW 36.8 mph 47.2 mph N/A   Unknown
7:30 PM 56.3 °F 54.1 °F 92% 29.60 in - West 41.4 mph 54.1 mph N/A   Unknown
8:30 PM 54.3 °F 51.1 °F 89% 29.68 in - West 39.1 mph 54.1 mph N/A   Unknown
9:30 PM 53 °F 51 °F 89% 29.73 in - West 31.1 mph - -  
9:30 PM 53.2 °F 50.7 °F 91% 29.73 in - West 31.1 mph 39.1 mph N/A   Unknown
10:30 PM 52.0 °F 47.1 °F 83% 29.79 in - West 32.2 mph 42.6 mph N/A   Unknown
11:30 PM 51.6 °F 47.7 °F 86% 29.83 in - West 26.5 mph 34.5 mph N/A   Unknown